Terminal Aerodrome Forecast
Issued by NWS Topeka, KS

Home | Current Version | Previous Version | Graphics & Text | Print | Product List | Glossary On
Versions: 1 2 3 4 5 6 7 8 9 10 11 12 13 14 15 16 17 18 19 20 21 22 23 24 25 26 27
000
FTUS43 KTOP 312300
TAFTOP
TAF
KTOP 312328Z 0100/0124 18016G23KT P6SM BKN250
     FM010300 17013G21KT P6SM VCTS BKN050CB
      TEMPO 0103/0107 VRB25G40KT 2SM +TSRA BR BKN025CB
     FM010900 21006KT P6SM BKN150
     FM011800 33008KT P6SM SCT200=

USA.gov is the U.S. government's official web portal to all federal, state and local government web resources and services.